Regional Weather Roundup
Issued by NWS Goodland, KS

Home | Current Version | Previous Version | Graphics & Text | Print | Product List | Glossary On
Versions: 1 2 3 4 5 6 7 8 9 10 11 12 13 14 15 16 17 18 19 20 21 22 23 24 25 26 27 28 29 30 31 32 33 34 35 36 37 38 39 40 41 42 43 44 45 46 47 48 49 50
771
ASUS43 KGLD 040459
RWRGLD

GOODLAND FORECAST AREA HOURLY WEATHER ROUNDUP
NATIONAL WEATHER SERVICE GOODLAND KS
1100 PM MDT TUE MAY 03 2016

...OFFICIAL OBSERVATIONS...

CITY           SKY/WX    TMP DP  RH WIND       PRES   REMARKS
GOODLAND KS    CLEAR     45  37  73 W9        30.13S
HILL CITY KS   CLEAR     50  43  77 W6        30.05F
IMPERIAL NEB   CLEAR     49  38  65 W6        30.11S
MCCOOK NEB     CLEAR     46  39  76 W6        30.07R
AKRON CO       CLEAR     53  27  36 CALM      30.19S
BURLINGTON CO  CLEAR     43  35  73 W9        30.17S
LIMON CO       CLEAR     41  36  82 W8        30.25R
$$

...UNOFFICIAL OBSERVATIONS...

CITY           SKY/WX    TMP DP  RH WIND       PRES   REMARKS
COLBY KS       CLEAR     43  43 100 W7        30.11S
NORTON KS      CLEAR     48  39  71 SW7       30.04S
SHARON SPRINGS   N/A     44  37  75 W7          N/A
KIT CARSON CO    N/A     44  37  77 MISG        N/A
YUMA CO          N/A     42  35  77 CALM        N/A
$$




USA.gov is the U.S. government's official web portal to all federal, state and local government web resources and services.